QPF
0.00 0.00 0.00 0.00 0.00 0.00 0.00 0.00 0.00 0.00 0.00 0.00 0.00 0.00 0.00 0.00 0.00 0.00 0.00 0.00 0.00 0.00 0.00 0.00 0.00 0.00 0.00 0.00 0.00 0.00 0.00 0.00 0.00 0.00 0.00 0.00 0.00 0.00 0.00 0.00 0.00 0.00 0.00 0.00 0.00 0.00 0.00 0.00 0.00 0.00 0.00 0.00 0.00 0.00 0.00 0.00 0.00 0.00 0.00 0.00 0.00 0.00 0.00 0.00 0.00 0.00 0.00 0.00 0.00
0.00 0.00 0.00 0.00 0.00 0.00 0.00 0.00 0.00 0.00 0.00 0.00 0.00 0.00 0.00 0.00 0.00 0.00 0.00 0.00 0.00 0.00 0.00 0.00 0.00 0.00 0.00 0.00 0.00 0.00 0.00 0.00 0.00 0.00 0.00 0.00 0.00 0.00 0.00 0.00 0.00 0.00 0.00 0.00 0.00 0.00 0.00 0.00 0.00 0.00 0.00 0.00 0.00 0.00 0.00 0.00 0.00 0.00 0.00 0.00 0.00 0.00 0.00 0.00 0.00 0.00 0.00 0.00 0.00
0.00 0.00 0.00 0.00 0.00 0.00 0.00 0.00 0.00 0.00 0.00 0.00 0.00 0.00 0.00 0.00 0.00 0.00 0.00 0.00 0.00 0.00 0.00 0.00 0.00 0.00 0.00 0.00 0.00 0.00 0.00 0.00 0.00 0.00 0.00 0.00 0.00 0.00 0.00 0.00 0.00 0.00 0.00 0.00 0.00 0.00 0.00 0.00 0.00 0.00 0.00 0.00 0.00 0.00 0.00 0.00 0.00 0.00 0.00 0.00 0.00 0.00 0.00 0.00 0.00 0.00 0.00 0.00 0.00
0.00 0.00 0.00 0.00 0.00 0.00 0.00 0.00 0.00 0.00 0.00 0.00 0.00 0.00 0.00 0.00 0.00 0.00 0.00 0.00 0.00 0.00 0.00 0.00 0.00 0.00 0.00 0.00 0.00 0.00 0.00 0.00 0.00 0.00 0.00 0.00 0.00 0.00 0.00 0.00 0.00 0.00 0.00 0.00 0.00 0.00 0.00 0.00 0.00 0.00 0.00 0.00 0.00 0.00 0.00 0.00 0.00 0.00 0.00 0.00 0.00 0.00 0.00 0.00 0.00 0.00 0.00 0.00 0.00
0.00 0.00 0.00 0.00 0.00 0.00 0.00 0.00 0.00 0.00 0.00 0.00 0.00 0.00 0.00 0.00 0.00 0.00 0.00 0.00 0.00 0.00 0.00 0.00 0.00 0.00 0.00 0.00 0.00 0.00 0.00 0.00 0.00 0.00 0.00 0.00 0.00 0.00 0.00 0.00 0.00 0.00 0.00 0.00 0.00 0.00 0.00 0.00 0.00 0.00 0.00 0.00 0.00 0.00 0.00 0.00 0.00 0.00 0.00 0.00 0.00 0.00 0.00 0.00 0.00 0.00 0.00 0.00 0.00
0.00 0.00 0.00 0.00 0.00 0.00 0.00 0.00 0.00 0.00 0.00 0.00 0.00 0.00 0.00 0.00 0.00 0.00 0.00 0.00 0.00 0.00 0.00 0.00 0.00 0.00 0.00 0.00 0.00 0.00 0.00 0.00 0.00 0.00 0.00 0.00 0.00 0.00 0.00 0.00 0.00 0.00 0.00 0.00 0.00 0.00 0.00 0.00 0.00 0.00 0.00 0.00 0.00 0.00 0.00 0.00 0.00 0.00 0.00 0.00 0.00 0.00 0.00 0.00 0.00 0.00 0.00 0.00 0.00
0.00 0.00 0.00 0.00 0.00 0.00 0.00 0.00 0.00 0.00 0.00 0.00 0.00 0.00 0.00 0.00 0.00 0.00 0.00 0.00 0.00 0.00 0.00 0.00 0.00 0.00 0.00 0.00 0.00 0.00 0.00 0.00 0.00 0.00 0.00 0.00 0.00 0.00 0.00 0.00 0.00 0.00 0.00 0.00 0.00 0.00 0.00 0.00 0.00 0.00 0.00 0.00 0.00 0.00 0.00 0.00 0.00 0.00 0.00 0.00 0.00 0.00 0.00 0.00 0.00 0.00 0.00 0.00 0.00
0.00 0.00 0.00 0.00 0.00 0.00 0.00 0.00 0.00 0.00 0.00 0.00 0.00 0.00 0.00 0.00 0.00 0.00 0.00 0.00 0.00 0.00 0.00 0.00 0.00 0.00 0.00 0.00 0.00 0.00 0.00 0.00 0.00 0.00 0.00 0.00 0.00 0.00 0.00 0.00 0.00 0.00 0.00 0.00 0.00 0.00 0.00 0.00 0.00 0.00 0.00 0.00 0.00 0.00 0.00 0.00 0.00 0.00 0.00 0.00 0.00 0.00 0.00 0.00 0.00 0.00 0.00 0.00 0.00
0.00 0.00 0.00 0.00 0.00 0.00 0.00 0.00 0.00 0.00 0.00 0.00 0.00 0.00 0.00 0.00 0.00 0.00 0.00 0.00 0.00 0.00 0.00 0.00 0.00 0.00 0.00 0.00 0.00 0.00 0.00 0.00 0.00 0.00 0.00 0.00 0.00 0.00 0.00 0.00 0.00 0.00 0.00 0.00 0.00 0.00 0.00 0.00 0.00 0.00 0.00 0.00 0.00 0.00 0.00 0.00 0.00 0.00 0.00 0.00 0.00 0.00 0.00 0.00 0.00 0.00 0.00 0.01 0.02
0.00 0.00 0.00 0.00 0.00 0.00 0.00 0.00 0.00 0.00 0.00 0.00 0.00 0.00 0.00 0.00 0.00 0.00 0.00 0.00 0.00 0.00 0.00 0.00 0.00 0.00 0.00 0.00 0.00 0.00 0.00 0.00 0.00 0.00 0.00 0.00 0.00 0.00 0.00 0.00 0.00 0.00 0.00 0.00 0.00 0.00 0.00 0.00 0.00 0.00 0.00 0.00 0.00 0.00 0.00 0.00 0.00 0.00 0.00 0.00 0.00 0.00 0.00 0.00 0.00 0.00 0.00 0.00 0.00
0.00 0.00 0.00 0.00 0.00 0.00 0.00 0.00 0.00 0.00 0.00 0.00 0.00 0.00 0.00 0.00 0.00 0.00 0.00 0.00 0.00 0.00 0.00 0.00 0.00 0.00 0.00 0.00 0.00 0.00 0.00 0.00 0.00 0.00 0.00 0.00 0.00 0.00 0.00 0.00 0.00 0.00 0.00 0.00 0.00 0.00 0.00 0.00 0.00 0.00 0.00 0.00 0.00 0.00 0.00 0.00 0.00 0.00 0.00 0.00 0.00 0.00 0.00 0.00 0.00 0.00 0.00 0.01 0.01
0.00 0.00 0.00 0.00 0.00 0.00 0.00 0.00 0.00 0.00 0.00 0.00 0.00 0.00 0.00 0.00 0.00 0.00 0.00 0.00 0.00 0.00 0.00 0.00 0.00 0.00 0.00 0.00 0.00 0.00 0.00 0.00 0.00 0.00 0.00 0.00 0.00 0.00 0.00 0.00 0.00 0.00 0.00 0.00 0.00 0.00 0.00 0.00 0.00 0.00 0.00 0.00 0.00 0.00 0.00 0.00 0.00 0.00 0.00 0.00 0.00 0.00 0.00 0.00 0.00 0.00 0.01 0.03 0.03
0.00 0.00 0.00 0.00 0.00 0.00 0.00 0.00 0.00 0.00 0.00 0.00 0.00 0.00 0.00 0.00 0.00 0.00 0.00 0.00 0.00 0.00 0.00 0.00 0.00 0.00 0.00 0.00 0.00 0.00 0.00 0.00 0.00 0.00 0.00 0.00 0.00 0.00 0.00 0.00 0.00 0.00 0.00 0.00 0.00 0.00 0.00 0.00 0.00 0.00 0.00 0.00 0.00 0.00 0.00 0.00 0.00 0.00 0.00 0.00 0.00 0.00 0.00 0.00 0.00 0.00 0.00 0.00 0.00
0.00 0.00 0.00 0.00 0.00 0.00 0.00 0.00 0.00 0.00 0.00 0.00 0.00 0.00 0.00 0.00 0.00 0.00 0.00 0.00 0.00 0.00 0.00 0.00 0.00 0.00 0.00 0.00 0.00 0.00 0.00 0.00 0.00 0.00 0.00 0.00 0.00 0.00 0.00 0.00 0.00 0.00 0.00 0.00 0.00 0.00 0.00 0.00 0.00 0.00 0.00 0.00 0.00 0.00 0.00 0.00 0.00 0.00 0.00 0.00 0.00 0.00 0.00 0.00 0.00 0.00 0.00 0.00 0.00
0.00 0.00 0.00 0.00 0.00 0.00 0.00 0.00 0.00 0.00 0.00 0.00 0.00 0.00 0.00 0.00 0.00 0.00 0.00 0.00 0.00 0.00 0.00 0.00 0.00 0.00 0.00 0.00 0.00 0.00 0.00 0.00 0.00 0.00 0.00 0.00 0.00 0.00 0.00 0.00 0.00 0.00 0.00 0.00 0.00 0.00 0.00 0.00 0.00 0.00 0.00 0.00 0.00 0.00 0.00 0.00 0.00 0.01 0.01 0.01 0.01 0.01 0.01 0.01 0.00 0.00 0.00 0.00 0.00
0.00 0.00 0.00 0.00 0.00 0.00 0.00 0.00 0.00 0.00 0.00 0.00 0.00 0.00 0.00 0.00 0.00 0.00 0.00 0.00 0.00 0.00 0.00 0.00 0.00 0.00 0.00 0.00 0.00 0.00 0.00 0.00 0.00 0.00 0.00 0.00 0.00 0.00 0.00 0.00 0.00 0.00 0.00 0.00 0.00 0.00 0.00 0.00 0.00 0.00 0.00 0.00 0.00 0.00 0.00 0.00 0.00 0.00 0.00 0.00 0.00 0.00 0.00 0.00 0.00 0.00 0.00 0.00 0.00
0.00 0.00 0.00 0.00 0.00 0.00 0.00 0.00 0.00 0.00 0.00 0.00 0.00 0.00 0.00 0.00 0.00 0.00 0.00 0.00 0.00 0.00 0.00 0.00 0.00 0.00 0.00 0.00 0.00 0.00 0.00 0.00 0.00 0.00 0.00 0.00 0.00 0.00 0.00 0.00 0.00 0.00 0.00 0.00 0.00 0.00 0.00 0.00 0.00 0.00 0.00 0.00 0.00 0.00 0.00 0.00 0.00 0.00 0.00 0.00 0.00 0.00 0.00 0.00 0.00 0.00 0.00 0.00 0.00
0.00 0.00 0.00 0.00 0.00 0.00 0.00 0.00 0.00 0.00 0.00 0.00 0.00 0.00 0.00 0.00 0.00 0.00 0.00 0.00 0.00 0.00 0.00 0.00 0.00 0.00 0.00 0.00 0.00 0.00 0.00 0.00 0.00 0.00 0.00 0.00 0.00 0.00 0.00 0.00 0.00 0.00 0.00 0.00 0.00 0.00 0.00 0.00 0.00 0.00 0.00 0.00 0.00 0.00 0.00 0.00 0.00 0.00 0.00 0.00 0.00 0.00 0.00 0.00 0.00 0.00 0.00 0.00 0.00
0.00 0.00 0.00 0.00 0.00 0.00 0.00 0.00 0.00 0.00 0.00 0.00 0.00 0.00 0.00 0.00 0.00 0.00 0.00 0.00 0.00 0.00 0.00 0.00 0.00 0.00 0.00 0.00 0.00 0.00 0.00 0.00 0.00 0.00 0.00 0.00 0.00 0.00 0.00 0.00 0.00 0.00 0.00 0.00 0.00 0.00 0.00 0.00 0.00 0.00 0.00 0.00 0.01 0.01 0.00 0.00 0.00 0.00 0.00 0.00 0.00 0.00 0.00 0.00 0.00 0.00 0.00 0.00 0.00
0.00 0.00 0.00 0.00 0.00 0.00 0.00 0.00 0.00 0.00 0.00 0.00 0.00 0.00 0.00 0.00 0.00 0.00 0.00 0.00 0.00 0.00 0.00 0.00 0.00 0.00 0.00 0.00 0.00 0.00 0.00 0.00 0.00 0.00 0.00 0.00 0.00 0.00 0.00 0.00 0.00 0.00 0.00 0.00 0.00 0.00 0.00 0.00 0.00 0.00 0.00 0.01 0.01 0.01 0.00 0.00 0.00 0.00 0.00 0.00 0.00 0.00 0.00 0.00 0.00 0.00 0.00 0.00 0.00
0.00 0.00 0.00 0.00 0.00 0.00 0.00 0.00 0.00 0.00 0.00 0.00 0.00 0.00 0.00 0.00 0.00 0.00 0.00 0.00 0.00 0.00 0.00 0.00 0.00 0.00 0.00 0.00 0.00 0.00 0.00 0.00 0.00 0.00 0.00 0.00 0.00 0.00 0.00 0.00 0.00 0.00 0.00 0.00 0.00 0.00 0.00 0.00 0.00 0.00 0.00 0.00 0.00 0.00 0.00 0.00 0.00 0.00 0.00 0.00 0.00 0.00 0.00 0.00 0.00 0.00 0.00 0.00 0.00
0.00 0.00 0.00 0.00 0.00 0.00 0.00 0.00 0.00 0.00 0.00 0.00 0.00 0.00 0.00 0.00 0.00 0.00 0.00 0.00 0.00 0.00 0.00 0.00 0.00 0.00 0.00 0.00 0.00 0.00 0.00 0.00 0.00 0.00 0.00 0.00 0.00 0.00 0.00 0.00 0.00 0.00 0.00 0.00 0.00 0.00 0.00 0.00 0.00 0.00 0.00 0.00 0.00 0.00 0.00 0.00 0.00 0.00 0.00 0.00 0.00 0.00 0.00 0.00 0.00 0.00 0.00 0.00 0.00
0.00 0.00 0.00 0.00 0.00 0.00 0.00 0.00 0.00 0.00 0.00 0.00 0.00 0.00 0.00 0.00 0.00 0.00 0.00 0.00 0.00 0.00 0.00 0.00 0.00 0.00 0.00 0.00 0.00 0.00 0.00 0.00 0.00 0.00 0.00 0.00 0.00 0.00 0.00 0.00 0.00 0.00 0.00 0.00 0.00 0.00 0.00 0.00 0.00 0.00 0.00 0.00 0.00 0.00 0.00 0.00 0.00 0.00 0.00 0.00 0.00 0.00 0.00 0.00 0.00 0.00 0.00 0.01 0.01
0.00 0.00 0.00 0.00 0.00 0.00 0.00 0.00 0.00 0.00 0.00 0.00 0.00 0.00 0.00 0.00 0.00 0.00 0.00 0.00 0.00 0.00 0.00 0.00 0.00 0.00 0.00 0.00 0.00 0.00 0.00 0.00 0.00 0.00 0.00 0.00 0.00 0.00 0.00 0.00 0.00 0.00 0.00 0.00 0.00 0.00 0.00 0.00 0.00 0.00 0.00 0.00 0.00 0.00 0.00 0.00 0.00 0.00 0.00 0.00 0.00 0.00 0.00 0.01 0.02 0.03 0.03 0.03 0.02
0.00 0.00 0.00 0.00 0.00 0.00 0.00 0.00 0.00 0.00 0.00 0.00 0.00 0.00 0.00 0.00 0.00 0.00 0.00 0.00 0.00 0.00 0.00 0.00 0.00 0.00 0.00 0.00 0.00 0.00 0.00 0.00 0.00 0.00 0.00 0.00 0.00 0.00 0.00 0.00 0.00 0.00 0.00 0.00 0.00 0.00 0.00 0.00 0.00 0.00 0.00 0.00 0.00 0.00 0.00 0.00 0.00 0.00 0.00 0.00 0.00 0.01 0.03 0.05 0.06 0.06 0.05 0.04 0.04
0.00 0.00 0.00 0.00 0.00 0.00 0.00 0.00 0.00 0.00 0.00 0.00 0.00 0.00 0.00 0.00 0.00 0.00 0.00 0.00 0.00 0.00 0.00 0.00 0.00 0.00 0.00 0.00 0.00 0.00 0.00 0.00 0.00 0.00 0.00 0.00 0.00 0.00 0.00 0.00 0.00 0.00 0.00 0.00 0.00 0.00 0.00 0.00 0.00 0.00 0.00 0.00 0.00 0.00 0.00 0.00 0.00 0.00 0.00 0.00 0.02 0.05 0.09 0.13 0.13 0.13 0.12 0.11 0.11
0.00 0.00 0.00 0.00 0.00 0.00 0.00 0.00 0.00 0.00 0.00 0.00 0.00 0.00 0.00 0.00 0.00 0.00 0.00 0.00 0.00 0.00 0.00 0.00 0.00 0.00 0.00 0.00 0.00 0.00 0.00 0.00 0.00 0.00 0.00 0.00 0.00 0.00 0.00 0.00 0.00 0.00 0.00 0.00 0.00 0.00 0.00 0.00 0.00 0.00 0.00 0.00 0.00 0.00 0.00 0.00 0.00 0.00 0.01 0.02 0.10 0.14 0.16 0.17 0.15 0.14 0.14 0.13 0.13
0.00 0.00 0.00 0.00 0.00 0.00 0.00 0.00 0.00 0.00 0.00 0.00 0.00 0.00 0.00 0.00 0.00 0.00 0.00 0.00 0.00 0.00 0.00 0.00 0.00 0.00 0.00 0.00 0.00 0.00 0.00 0.00 0.00 0.00 0.00 0.00 0.00 0.00 0.00 0.00 0.00 0.00 0.00 0.00 0.00 0.00 0.00 0.00 0.00 0.00 0.00 0.00 0.00 0.00 0.00 0.00 0.01 0.03 0.06 0.09 0.08 0.09 0.11 0.12 0.12 0.12 0.11 0.11 0.10
0.00 0.00 0.00 0.00 0.00 0.00 0.00 0.00 0.00 0.00 0.00 0.00 0.00 0.00 0.00 0.00 0.00 0.00 0.00 0.00 0.00 0.00 0.00 0.00 0.00 0.00 0.00 0.00 0.00 0.00 0.00 0.00 0.00 0.00 0.00 0.00 0.00 0.00 0.00 0.00 0.00 0.00 0.00 0.00 0.00 0.00 0.00 0.00 0.00 0.00 0.00 0.00 0.00 0.00 0.00 0.00 0.01 0.01 0.02 0.05 0.02 0.02 0.04 0.05 0.06 0.08 0.09 0.10 0.13
0.00 0.00 0.00 0.00 0.00 0.00 0.00 0.00 0.00 0.00 0.00 0.00 0.00 0.00 0.00 0.00 0.00 0.00 0.00 0.00 0.00 0.00 0.00 0.00 0.00 0.00 0.00 0.00 0.00 0.00 0.00 0.00 0.00 0.00 0.00 0.00 0.00 0.00 0.00 0.00 0.00 0.00 0.00 0.00 0.00 0.00 0.00 0.00 0.00 0.00 0.00 0.00 0.00 0.00 0.00 0.01 0.01 0.00 0.01 0.03 0.04 0.05 0.06 0.08 0.10 0.12 0.15 0.18 0.20
0.00 0.00 0.00 0.00 0.00 0.00 0.00 0.00 0.00 0.00 0.00 0.00 0.00 0.00 0.00 0.00 0.00 0.00 0.00 0.00 0.01 0.01 0.00 0.00 0.00 0.00 0.00 0.00 0.00 0.00 0.00 0.00 0.00 0.00 0.00 0.00 0.00 0.00 0.00 0.00 0.00 0.00 0.00 0.00 0.00 0.00 0.00 0.00 0.00 0.00 0.01 0.01 0.00 0.00 0.00 0.00 0.00 0.01 0.03 0.05 0.06 0.07 0.07 0.08 0.10 0.12 0.14 0.16 0.17
0.00 0.00 0.00 0.00 0.00 0.00 0.00 0.00 0.00 0.00 0.00 0.00 0.00 0.00 0.00 0.00 0.00 0.00 0.00 0.01 0.01 0.01 0.00 0.00 0.00 0.00 0.00 0.00 0.00 0.00 0.00 0.00 0.00 0.00 0.00 0.00 0.00 0.00 0.00 0.00 0.00 0.00 0.00 0.00 0.00 0.00 0.00 0.00 0.01 0.01 0.02 0.02 0.01 0.00 0.00 0.01 0.02 0.02 0.03 0.03 0.04 0.04 0.05 0.05 0.06 0.07 0.09 0.11 0.10
0.00 0.00 0.00 0.00 0.00 0.00 0.00 0.00 0.00 0.00 0.00 0.00 0.00 0.00 0.00 0.00 0.00 0.00 0.00 0.01 0.01 0.00 0.00 0.00 0.00 0.00 0.00 0.00 0.00 0.00 0.01 0.01 0.00 0.00 0.00 0.00 0.00 0.00 0.00 0.00 0.00 0.00 0.00 0.00 0.00 0.00 0.00 0.01 0.02 0.03 0.03 0.03 0.02 0.01 0.01 0.01 0.02 0.01 0.01 0.01 0.01 0.02 0.02 0.03 0.03 0.04 0.06 0.07 0.10
0.00 0.00 0.00 0.00 0.00 0.00 0.00 0.00 0.00 0.00 0.00 0.00 0.00 0.00 0.00 0.00 0.00 0.00 0.00 0.00 0.01 0.01 0.00 0.00 0.00 0.00 0.00 0.00 0.01 0.00 0.00 0.00 0.00 0.00 0.00 0.00 0.00 0.00 0.00 0.00 0.00 0.00 0.00 0.00 0.00 0.00 0.00 0.00 0.02 0.02 0.03 0.02 0.02 0.01 0.01 0.01 0.01 0.01 0.00 0.01 0.01 0.02 0.03 0.03 0.04 0.06 0.08 0.09 0.09
0.00 0.00 0.00 0.00 0.00 0.00 0.00 0.00 0.00 0.00 0.00 0.00 0.00 0.00 0.00 0.00 0.00 0.00 0.00 0.00 0.01 0.01 0.01 0.01 0.01 0.01 0.01 0.00 0.00 0.00 0.00 0.00 0.00 0.01 0.01 0.01 0.01 0.00 0.00 0.00 0.01 0.00 0.00 0.00 0.00 0.00 0.00 0.00 0.01 0.02 0.02 0.02 0.01 0.01 0.01 0.01 0.01 0.01 0.01 0.02 0.03 0.04 0.06 0.07 0.09 0.10 0.11 0.10 0.10
0.00 0.00 0.00 0.00 0.00 0.00 0.00 0.00 0.00 0.00 0.00 0.00 0.00 0.00 0.00 0.00 0.00 0.00 0.00 0.00 0.01 0.00 0.00 0.01 0.02 0.01 0.01 0.01 0.00 0.00 0.00 0.00 0.00 0.01 0.01 0.01 0.01 0.00 0.00 0.00 0.01 0.02 0.02 0.00 0.00 0.00 0.00 0.01 0.02 0.02 0.02 0.02 0.02 0.01 0.01 0.01 0.01 0.02 0.03 0.05 0.07 0.10 0.13 0.15 0.17 0.18 0.17 0.14 0.12
0.00 0.00 0.00 0.00 0.00 0.00 0.00 0.00 0.00 0.00 0.00 0.00 0.00 0.00 0.00 0.00 0.00 0.00 0.00 0.00 0.00 0.00 0.00 0.00 0.01 0.01 0.01 0.01 0.01 0.01 0.00 0.00 0.00 0.00 0.00 0.00 0.00 0.00 0.00 0.00 0.02 0.04 0.04 0.00 0.01 0.01 0.01 0.02 0.03 0.03 0.04 0.03 0.03 0.02 0.01 0.01 0.02 0.04 0.06 0.08 0.10 0.13 0.15 0.17 0.16 0.16 0.14 0.09 0.08
0.00 0.00 0.00 0.00 0.00 0.00 0.00 0.00 0.00 0.00 0.00 0.00 0.00 0.00 0.00 0.00 0.00 0.00 0.00 0.00 0.00 0.00 0.00 0.00 0.00 0.00 0.00 0.00 0.01 0.00 0.00 0.00 0.00 0.05 0.09 0.09 0.08 0.05 0.04 0.07 0.03 0.01 0.00 0.00 0.01 0.02 0.03 0.03 0.04 0.04 0.04 0.03 0.02 0.01 0.01 0.01 0.02 0.03 0.05 0.06 0.08 0.09 0.10 0.11 0.11 0.11 0.10 0.07 0.07
0.00 0.00 0.00 0.00 0.00 0.00 0.00 0.00 0.00 0.00 0.00 0.00 0.00 0.00 0.00 0.00 0.00 0.00 0.00 0.00 0.00 0.00 0.00 0.00 0.00 0.00 0.00 0.00 0.00 0.00 0.03 0.12 0.03 0.08 0.15 0.14 0.15 0.10 0.07 0.11 0.03 0.00 0.00 0.00 0.01 0.02 0.02 0.03 0.02 0.02 0.02 0.01 0.01 0.00 0.00 0.00 0.01 0.02 0.04 0.06 0.07 0.08 0.08 0.08 0.09 0.09 0.08 0.07 0.08
0.00 0.00 0.00 0.00 0.00 0.00 0.00 0.00 0.00 0.00 0.00 0.00 0.00 0.00 0.00 0.00 0.00 0.00 0.00 0.00 0.00 0.00 0.00 0.00 0.00 0.03 0.07 0.09 0.12 0.16 0.18 0.16 0.04 0.00 0.00 0.00 0.04 0.03 0.01 0.00 0.00 0.00 0.00 0.01 0.01 0.00 0.01 0.01 0.01 0.00 0.00 0.00 0.00 0.00 0.00 0.00 0.01 0.02 0.04 0.05 0.06 0.07 0.07 0.07 0.07 0.08 0.09 0.09 0.09
0.00 0.00 0.00 0.00 0.00 0.00 0.00 0.00 0.00 0.00 0.00 0.00 0.00 0.00 0.00 0.00 0.00 0.00 0.00 0.00 0.00 0.00 0.00 0.00 0.06 0.12 0.14 0.10 0.14 0.18 0.15 0.00 0.00 0.00 0.00 0.00 0.00 0.00 0.00 0.00 0.00 0.00 0.00 0.00 0.01 0.01 0.00 0.00 0.00 0.00 0.00 0.00 0.00 0.00 0.00 0.01 0.02 0.03 0.04 0.04 0.04 0.06 0.07 0.08 0.08 0.09 0.11 0.11 0.12
MSLP
1008.62 1008.94 1009.18 1009.18 1009.10 1009.02 1009.02 1009.02 1009.14 1009.30 1009.42 1009.54 1009.70 1009.82 1009.94 1010.02 1010.18 1010.34 1010.58 1010.74 1010.98 1011.18 1011.38 1011.54 1011.70 1011.86 1012.02 1012.18 1012.34 1012.58 1012.74 1012.90 1013.06 1013.22 1013.38 1013.50 1013.62 1013.74 1013.90 1014.02 1014.18 1014.30 1014.50 1014.66 1014.86 1015.02 1015.22 1015.34 1015.50 1015.62 1015.74 1015.86 1015.94 1016.02 1016.06 1016.10 1016.18 1016.26 1016.30 1016.38 1016.46 1016.54 1016.62 1016.74 1016.78 1016.86 1016.90 1016.94 1016.94
1008.46 1008.74 1008.98 1009.06 1009.02 1009.02 1009.02 1009.10 1009.18 1009.30 1009.34 1009.46 1009.54 1009.66 1009.78 1009.90 1010.02 1010.18 1010.38 1010.58 1010.82 1011.02 1011.18 1011.34 1011.50 1011.66 1011.82 1012.02 1012.18 1012.38 1012.58 1012.74 1012.94 1013.06 1013.22 1013.34 1013.46 1013.58 1013.74 1013.90 1014.02 1014.18 1014.30 1014.50 1014.70 1014.86 1015.06 1015.18 1015.38 1015.50 1015.58 1015.70 1015.82 1015.90 1015.90 1015.90 1015.98 1016.06 1016.18 1016.18 1016.26 1016.34 1016.46 1016.58 1016.58 1016.66 1016.74 1016.78 1016.82
1008.30 1008.50 1008.74 1008.86 1008.94 1009.02 1009.06 1009.14 1009.18 1009.22 1009.30 1009.38 1009.42 1009.54 1009.70 1009.82 1009.90 1010.02 1010.22 1010.42 1010.58 1010.82 1011.02 1011.18 1011.30 1011.46 1011.62 1011.82 1012.02 1012.18 1012.34 1012.54 1012.74 1012.90 1013.06 1013.18 1013.30 1013.38 1013.54 1013.70 1013.90 1013.98 1014.10 1014.30 1014.50 1014.66 1014.86 1015.02 1015.22 1015.34 1015.46 1015.50 1015.58 1015.70 1015.74 1015.74 1015.78 1015.90 1016.02 1016.02 1016.06 1016.18 1016.26 1016.30 1016.38 1016.46 1016.58 1016.62 1016.66
1008.18 1008.30 1008.54 1008.74 1008.86 1008.90 1008.98 1009.02 1009.06 1009.14 1009.18 1009.26 1009.30 1009.42 1009.54 1009.70 1009.78 1009.90 1010.02 1010.22 1010.42 1010.62 1010.82 1010.94 1011.06 1011.18 1011.38 1011.58 1011.74 1011.94 1012.14 1012.30 1012.50 1012.70 1012.86 1013.02 1013.10 1013.22 1013.34 1013.46 1013.70 1013.86 1013.94 1014.10 1014.26 1014.46 1014.62 1014.82 1015.02 1015.18 1015.26 1015.30 1015.38 1015.46 1015.50 1015.58 1015.58 1015.70 1015.78 1015.82 1015.90 1015.98 1016.02 1016.06 1016.18 1016.26 1016.34 1016.42 1016.46
1008.02 1008.14 1008.30 1008.46 1008.66 1008.82 1008.86 1008.90 1008.98 1009.02 1009.06 1009.10 1009.18 1009.30 1009.46 1009.54 1009.62 1009.74 1009.86 1010.02 1010.18 1010.34 1010.50 1010.66 1010.78 1010.94 1011.06 1011.26 1011.46 1011.70 1011.90 1012.10 1012.30 1012.46 1012.62 1012.78 1012.86 1013.02 1013.18 1013.30 1013.46 1013.62 1013.74 1013.90 1014.10 1014.26 1014.42 1014.66 1014.78 1014.90 1015.02 1015.06 1015.10 1015.18 1015.18 1015.30 1015.38 1015.50 1015.58 1015.66 1015.70 1015.74 1015.78 1015.90 1015.94 1016.02 1016.14 1016.22 1016.30
1007.90 1007.94 1008.02 1008.18 1008.42 1008.58 1008.74 1008.74 1008.82 1008.86 1008.90 1008.94 1009.06 1009.18 1009.26 1009.34 1009.46 1009.58 1009.74 1009.82 1009.90 1010.06 1010.22 1010.42 1010.58 1010.70 1010.86 1010.98 1011.26 1011.46 1011.70 1011.86 1012.02 1012.18 1012.38 1012.50 1012.66 1012.82 1012.98 1013.10 1013.26 1013.38 1013.54 1013.70 1013.90 1014.02 1014.22 1014.38 1014.58 1014.66 1014.74 1014.82 1014.86 1014.86 1014.90 1015.02 1015.18 1015.30 1015.38 1015.46 1015.50 1015.54 1015.58 1015.66 1015.74 1015.82 1015.90 1016.02 1016.10
1007.66 1007.74 1007.82 1007.94 1008.18 1008.34 1008.50 1008.58 1008.66 1008.70 1008.74 1008.78 1008.90 1009.02 1009.14 1009.18 1009.30 1009.42 1009.54 1009.58 1009.74 1009.90 1010.06 1010.22 1010.38 1010.50 1010.58 1010.74 1010.98 1011.22 1011.46 1011.66 1011.82 1011.98 1012.14 1012.26 1012.42 1012.58 1012.74 1012.86 1013.02 1013.18 1013.30 1013.46 1013.62 1013.82 1014.02 1014.14 1014.30 1014.42 1014.46 1014.58 1014.66 1014.66 1014.70 1014.82 1014.94 1015.06 1015.18 1015.22 1015.30 1015.34 1015.42 1015.46 1015.50 1015.62 1015.74 1015.74 1015.86
1007.46 1007.58 1007.62 1007.74 1007.90 1008.10 1008.30 1008.42 1008.46 1008.54 1008.58 1008.66 1008.74 1008.82 1008.94 1009.02 1009.14 1009.26 1009.38 1009.50 1009.62 1009.74 1009.90 1010.02 1010.18 1010.26 1010.34 1010.50 1010.66 1010.90 1011.18 1011.34 1011.58 1011.74 1011.90 1012.02 1012.18 1012.34 1012.46 1012.58 1012.74 1012.86 1013.02 1013.18 1013.38 1013.58 1013.74 1013.90 1014.02 1014.18 1014.26 1014.38 1014.46 1014.46 1014.46 1014.58 1014.70 1014.82 1014.86 1014.94 1015.02 1015.10 1015.18 1015.22 1015.30 1015.38 1015.50 1015.58 1015.66
1007.30 1007.38 1007.46 1007.54 1007.66 1007.86 1008.02 1008.18 1008.30 1008.38 1008.46 1008.50 1008.50 1008.58 1008.74 1008.86 1009.02 1009.14 1009.30 1009.46 1009.50 1009.58 1009.62 1009.82 1009.90 1010.02 1010.18 1010.30 1010.42 1010.58 1010.78 1011.02 1011.22 1011.42 1011.58 1011.74 1011.90 1012.06 1012.22 1012.34 1012.46 1012.58 1012.74 1012.86 1013.02 1013.22 1013.46 1013.66 1013.78 1013.86 1013.94 1014.02 1014.14 1014.18 1014.26 1014.34 1014.46 1014.54 1014.58 1014.70 1014.74 1014.82 1014.90 1015.02 1015.06 1015.18 1015.30 1015.42 1015.54
1007.06 1007.22 1007.34 1007.46 1007.54 1007.66 1007.82 1008.02 1008.10 1008.22 1008.30 1008.38 1008.42 1008.46 1008.62 1008.78 1008.86 1009.02 1009.14 1009.22 1009.34 1009.42 1009.50 1009.58 1009.74 1009.86 1010.02 1010.14 1010.18 1010.30 1010.50 1010.70 1010.86 1011.06 1011.30 1011.46 1011.62 1011.78 1011.90 1012.06 1012.18 1012.34 1012.46 1012.58 1012.74 1012.90 1013.10 1013.34 1013.46 1013.58 1013.62 1013.74 1013.78 1013.86 1013.94 1014.10 1014.18 1014.26 1014.30 1014.46 1014.50 1014.58 1014.66 1014.74 1014.86 1014.98 1015.14 1015.30 1015.46
1006.86 1007.02 1007.18 1007.34 1007.42 1007.50 1007.62 1007.82 1007.94 1008.06 1008.18 1008.26 1008.30 1008.34 1008.46 1008.62 1008.78 1008.86 1008.94 1009.06 1009.18 1009.30 1009.38 1009.42 1009.54 1009.70 1009.86 1009.98 1010.02 1010.10 1010.22 1010.38 1010.54 1010.74 1010.98 1011.14 1011.30 1011.46 1011.58 1011.74 1011.90 1012.02 1012.18 1012.30 1012.46 1012.58 1012.78 1012.98 1013.14 1013.22 1013.30 1013.38 1013.50 1013.58 1013.66 1013.78 1013.90 1014.02 1014.10 1014.18 1014.26 1014.34 1014.46 1014.54 1014.66 1014.82 1014.98 1015.14 1015.34
1006.74 1006.86 1007.02 1007.18 1007.26 1007.38 1007.50 1007.62 1007.78 1007.90 1007.98 1008.10 1008.18 1008.18 1008.30 1008.46 1008.58 1008.74 1008.86 1008.98 1009.10 1009.18 1009.22 1009.26 1009.38 1009.50 1009.62 1009.74 1009.86 1009.94 1010.02 1010.14 1010.26 1010.46 1010.66 1010.86 1011.02 1011.18 1011.30 1011.46 1011.58 1011.74 1011.86 1011.98 1012.10 1012.30 1012.46 1012.58 1012.74 1012.86 1013.02 1013.10 1013.26 1013.38 1013.46 1013.50 1013.66 1013.78 1013.90 1013.98 1014.06 1014.18 1014.30 1014.34 1014.46 1014.62 1014.82 1014.98 1015.18
1006.58 1006.70 1006.82 1006.98 1007.10 1007.26 1007.42 1007.50 1007.58 1007.66 1007.78 1007.90 1007.98 1008.02 1008.14 1008.26 1008.38 1008.54 1008.74 1008.86 1008.98 1009.02 1009.06 1009.10 1009.18 1009.30 1009.42 1009.50 1009.66 1009.78 1009.90 1009.94 1010.02 1010.18 1010.34 1010.50 1010.70 1010.86 1011.02 1011.18 1011.30 1011.46 1011.58 1011.70 1011.82 1011.98 1012.10 1012.18 1012.30 1012.46 1012.66 1012.82 1012.94 1013.02 1013.14 1013.26 1013.38 1013.50 1013.62 1013.74 1013.86 1013.94 1014.02 1014.10 1014.22 1014.42 1014.62 1014.78 1015.02
1006.38 1006.50 1006.62 1006.74 1006.90 1007.06 1007.18 1007.30 1007.38 1007.46 1007.54 1007.66 1007.74 1007.86 1007.94 1008.02 1008.18 1008.30 1008.50 1008.66 1008.74 1008.82 1008.86 1008.90 1009.02 1009.10 1009.18 1009.30 1009.38 1009.54 1009.66 1009.74 1009.82 1009.94 1010.06 1010.22 1010.38 1010.58 1010.74 1010.90 1011.06 1011.18 1011.30 1011.46 1011.54 1011.66 1011.74 1011.86 1011.98 1012.10 1012.30 1012.46 1012.58 1012.74 1012.86 1013.02 1013.10 1013.18 1013.30 1013.42 1013.58 1013.66 1013.74 1013.90 1014.02 1014.26 1014.50 1014.74 1014.86
1006.22 1006.30 1006.42 1006.54 1006.66 1006.78 1006.94 1007.02 1007.14 1007.18 1007.30 1007.38 1007.46 1007.58 1007.66 1007.78 1007.90 1008.02 1008.22 1008.38 1008.46 1008.58 1008.62 1008.74 1008.82 1008.86 1008.94 1009.02 1009.14 1009.26 1009.38 1009.50 1009.62 1009.74 1009.86 1009.98 1010.14 1010.30 1010.46 1010.62 1010.78 1010.90 1011.02 1011.18 1011.26 1011.34 1011.46 1011.54 1011.62 1011.74 1011.90 1012.06 1012.26 1012.42 1012.58 1012.74 1012.86 1012.90 1013.02 1013.10 1013.26 1013.42 1013.58 1013.74 1013.98 1014.18 1014.38 1014.58 1014.74
1005.94 1006.06 1006.18 1006.30 1006.42 1006.50 1006.58 1006.70 1006.78 1006.86 1006.98 1007.06 1007.14 1007.26 1007.38 1007.50 1007.58 1007.74 1007.94 1008.10 1008.18 1008.30 1008.42 1008.50 1008.58 1008.62 1008.74 1008.82 1008.90 1009.02 1009.18 1009.30 1009.38 1009.50 1009.62 1009.74 1009.86 1010.02 1010.18 1010.30 1010.46 1010.58 1010.74 1010.86 1011.02 1011.10 1011.18 1011.26 1011.34 1011.46 1011.58 1011.74 1011.94 1012.10 1012.26 1012.46 1012.58 1012.70 1012.78 1012.90 1013.02 1013.22 1013.46 1013.66 1013.90 1014.06 1014.22 1014.42 1014.58
1005.62 1005.78 1005.90 1006.02 1006.10 1006.18 1006.26 1006.30 1006.42 1006.50 1006.58 1006.74 1006.86 1006.98 1007.10 1007.22 1007.30 1007.46 1007.62 1007.78 1007.90 1008.02 1008.18 1008.26 1008.30 1008.42 1008.54 1008.62 1008.74 1008.82 1008.94 1009.06 1009.18 1009.26 1009.34 1009.46 1009.54 1009.66 1009.82 1009.94 1010.14 1010.26 1010.42 1010.58 1010.74 1010.82 1010.86 1011.02 1011.14 1011.26 1011.38 1011.50 1011.70 1011.86 1012.02 1012.18 1012.34 1012.50 1012.62 1012.78 1012.86 1013.06 1013.30 1013.50 1013.70 1013.90 1014.02 1014.18 1014.30
1005.30 1005.46 1005.58 1005.70 1005.78 1005.90 1005.94 1006.02 1006.06 1006.18 1006.26 1006.38 1006.54 1006.66 1006.82 1006.94 1007.06 1007.18 1007.30 1007.46 1007.58 1007.74 1007.90 1007.98 1008.02 1008.18 1008.30 1008.38 1008.46 1008.58 1008.66 1008.78 1008.86 1008.98 1009.02 1009.14 1009.18 1009.30 1009.46 1009.58 1009.74 1009.90 1010.06 1010.22 1010.38 1010.46 1010.58 1010.74 1010.90 1011.06 1011.18 1011.34 1011.46 1011.62 1011.78 1011.94 1012.10 1012.30 1012.46 1012.62 1012.78 1012.90 1013.10 1013.30 1013.46 1013.62 1013.82 1013.94 1014.02
1004.98 1005.14 1005.30 1005.42 1005.46 1005.58 1005.62 1005.74 1005.78 1005.90 1005.94 1006.06 1006.18 1006.30 1006.50 1006.66 1006.74 1006.86 1007.02 1007.14 1007.30 1007.46 1007.58 1007.70 1007.82 1007.90 1007.98 1008.06 1008.18 1008.30 1008.38 1008.46 1008.58 1008.62 1008.70 1008.78 1008.86 1008.98 1009.10 1009.22 1009.42 1009.58 1009.74 1009.90 1010.02 1010.18 1010.30 1010.46 1010.66 1010.86 1011.02 1011.18 1011.30 1011.46 1011.58 1011.74 1011.90 1012.06 1012.26 1012.46 1012.58 1012.74 1012.90 1013.06 1013.22 1013.38 1013.50 1013.62 1013.78
1004.58 1004.74 1004.90 1005.02 1005.18 1005.26 1005.38 1005.46 1005.50 1005.58 1005.70 1005.78 1005.90 1006.02 1006.18 1006.30 1006.46 1006.62 1006.74 1006.86 1006.98 1007.14 1007.30 1007.46 1007.58 1007.66 1007.74 1007.82 1007.90 1008.02 1008.10 1008.14 1008.22 1008.30 1008.42 1008.46 1008.58 1008.66 1008.74 1008.86 1009.02 1009.18 1009.38 1009.54 1009.70 1009.86 1010.02 1010.18 1010.38 1010.58 1010.78 1010.98 1011.18 1011.30 1011.46 1011.58 1011.74 1011.90 1012.02 1012.18 1012.34 1012.46 1012.62 1012.82 1012.98 1013.14 1013.26 1013.38 1013.54
1004.22 1004.38 1004.50 1004.66 1004.86 1005.02 1005.10 1005.18 1005.22 1005.30 1005.42 1005.50 1005.58 1005.74 1005.82 1005.98 1006.14 1006.30 1006.46 1006.54 1006.66 1006.86 1007.02 1007.18 1007.30 1007.38 1007.46 1007.54 1007.62 1007.74 1007.74 1007.82 1007.90 1008.02 1008.10 1008.18 1008.30 1008.38 1008.46 1008.58 1008.74 1008.86 1009.02 1009.18 1009.38 1009.58 1009.70 1009.90 1010.02 1010.26 1010.46 1010.74 1010.90 1011.10 1011.30 1011.46 1011.58 1011.70 1011.82 1011.94 1012.06 1012.22 1012.42 1012.58 1012.74 1012.86 1013.02 1013.14 1013.26
1003.86 1003.98 1004.18 1004.34 1004.50 1004.66 1004.82 1004.90 1005.02 1005.10 1005.18 1005.26 1005.30 1005.42 1005.54 1005.66 1005.82 1005.98 1006.10 1006.26 1006.42 1006.58 1006.74 1006.86 1007.02 1007.10 1007.18 1007.26 1007.34 1007.46 1007.46 1007.54 1007.58 1007.70 1007.82 1007.94 1008.02 1008.14 1008.22 1008.30 1008.46 1008.58 1008.74 1008.86 1009.02 1009.22 1009.42 1009.58 1009.74 1009.94 1010.18 1010.46 1010.62 1010.86 1011.02 1011.22 1011.38 1011.50 1011.62 1011.74 1011.90 1012.02 1012.18 1012.30 1012.46 1012.58 1012.74 1012.86 1012.98
1003.46 1003.62 1003.78 1004.02 1004.18 1004.30 1004.50 1004.66 1004.74 1004.86 1004.94 1005.02 1005.10 1005.18 1005.30 1005.42 1005.50 1005.62 1005.82 1006.02 1006.14 1006.30 1006.42 1006.58 1006.74 1006.82 1006.90 1006.98 1007.06 1007.18 1007.22 1007.30 1007.38 1007.46 1007.58 1007.70 1007.78 1007.90 1008.02 1008.14 1008.26 1008.38 1008.46 1008.58 1008.70 1008.86 1009.06 1009.30 1009.50 1009.66 1009.90 1010.14 1010.30 1010.54 1010.74 1010.98 1011.18 1011.30 1011.42 1011.50 1011.62 1011.74 1011.86 1011.98 1012.14 1012.26 1012.46 1012.58 1012.74
1003.14 1003.30 1003.46 1003.58 1003.74 1003.94 1004.14 1004.30 1004.46 1004.58 1004.66 1004.74 1004.82 1004.90 1005.02 1005.18 1005.26 1005.38 1005.54 1005.74 1005.90 1006.02 1006.14 1006.26 1006.38 1006.54 1006.62 1006.74 1006.78 1006.90 1007.02 1007.10 1007.18 1007.26 1007.34 1007.46 1007.58 1007.66 1007.78 1007.90 1008.02 1008.10 1008.18 1008.26 1008.38 1008.54 1008.74 1009.02 1009.22 1009.42 1009.58 1009.82 1010.02 1010.18 1010.42 1010.70 1010.90 1011.06 1011.18 1011.26 1011.34 1011.42 1011.50 1011.66 1011.82 1011.98 1012.18 1012.30 1012.46
1002.82 1003.02 1003.18 1003.30 1003.46 1003.58 1003.74 1003.90 1004.06 1004.18 1004.30 1004.42 1004.54 1004.66 1004.78 1004.90 1005.02 1005.18 1005.30 1005.42 1005.58 1005.70 1005.82 1005.94 1006.06 1006.22 1006.42 1006.54 1006.62 1006.70 1006.78 1006.86 1006.98 1007.06 1007.18 1007.26 1007.34 1007.46 1007.58 1007.66 1007.74 1007.82 1007.90 1008.02 1008.22 1008.46 1008.58 1008.74 1008.94 1009.14 1009.30 1009.50 1009.70 1009.90 1010.18 1010.46 1010.62 1010.78 1010.86 1010.98 1011.06 1011.14 1011.22 1011.38 1011.54 1011.74 1011.94 1012.10 1012.22
1002.58 1002.74 1002.86 1003.02 1003.14 1003.30 1003.42 1003.58 1003.70 1003.82 1003.94 1004.06 1004.22 1004.38 1004.50 1004.62 1004.74 1004.90 1005.02 1005.18 1005.26 1005.38 1005.58 1005.74 1005.82 1005.94 1006.14 1006.30 1006.38 1006.50 1006.58 1006.66 1006.74 1006.82 1006.90 1007.02 1007.10 1007.18 1007.30 1007.38 1007.46 1007.50 1007.62 1007.78 1008.10 1008.34 1008.50 1008.62 1008.78 1008.90 1009.02 1009.22 1009.46 1009.70 1009.98 1010.18 1010.34 1010.50 1010.62 1010.74 1010.86 1010.94 1011.02 1011.18 1011.34 1011.54 1011.74 1011.94 1012.10
1002.34 1002.50 1002.62 1002.74 1002.86 1003.02 1003.18 1003.22 1003.38 1003.50 1003.62 1003.74 1003.94 1004.06 1004.18 1004.30 1004.46 1004.62 1004.74 1004.86 1004.94 1005.06 1005.22 1005.42 1005.54 1005.70 1005.86 1005.98 1006.18 1006.30 1006.38 1006.46 1006.54 1006.62 1006.70 1006.74 1006.82 1006.86 1006.98 1007.06 1007.14 1007.22 1007.34 1007.58 1007.90 1008.18 1008.34 1008.46 1008.62 1008.78 1008.90 1009.02 1009.26 1009.54 1009.74 1009.90 1010.10 1010.22 1010.38 1010.50 1010.66 1010.78 1010.90 1011.06 1011.22 1011.42 1011.62 1011.86 1011.98
1002.18 1002.26 1002.38 1002.54 1002.66 1002.78 1002.86 1003.02 1003.14 1003.26 1003.38 1003.46 1003.58 1003.74 1003.90 1004.02 1004.18 1004.34 1004.46 1004.58 1004.70 1004.82 1004.98 1005.14 1005.26 1005.42 1005.58 1005.74 1005.90 1005.98 1006.10 1006.26 1006.38 1006.46 1006.50 1006.58 1006.58 1006.66 1006.70 1006.74 1006.82 1006.86 1007.06 1007.38 1007.70 1007.94 1008.14 1008.30 1008.46 1008.62 1008.78 1008.98 1009.14 1009.34 1009.58 1009.74 1009.86 1010.02 1010.18 1010.38 1010.50 1010.70 1010.86 1011.02 1011.14 1011.30 1011.46 1011.62 1011.78
1001.90 1002.02 1002.18 1002.34 1002.46 1002.58 1002.66 1002.82 1002.90 1003.02 1003.06 1003.18 1003.30 1003.46 1003.62 1003.82 1003.98 1004.10 1004.22 1004.34 1004.46 1004.62 1004.78 1004.90 1005.02 1005.18 1005.38 1005.54 1005.58 1005.70 1005.82 1006.02 1006.14 1006.26 1006.38 1006.46 1006.46 1006.50 1006.50 1006.54 1006.50 1006.58 1006.82 1007.18 1007.42 1007.62 1007.86 1008.06 1008.26 1008.46 1008.66 1008.86 1008.98 1009.18 1009.30 1009.46 1009.58 1009.74 1009.94 1010.18 1010.34 1010.58 1010.74 1010.90 1011.02 1011.18 1011.30 1011.42 1011.50
1001.58 1001.74 1001.90 1002.02 1002.18 1002.30 1002.42 1002.50 1002.58 1002.70 1002.82 1002.94 1003.14 1003.30 1003.46 1003.62 1003.78 1003.90 1004.02 1004.14 1004.30 1004.42 1004.50 1004.62 1004.82 1005.02 1005.14 1005.22 1005.34 1005.50 1005.66 1005.74 1005.90 1006.06 1006.22 1006.30 1006.34 1006.34 1006.34 1006.34 1006.34 1006.42 1006.58 1006.90 1007.14 1007.34 1007.58 1007.78 1008.02 1008.22 1008.46 1008.62 1008.82 1008.94 1009.06 1009.18 1009.30 1009.46 1009.70 1009.90 1010.18 1010.42 1010.58 1010.74 1010.90 1011.02 1011.10 1011.18 1011.30
1001.30 1001.46 1001.62 1001.78 1001.90 1002.02 1002.10 1002.18 1002.30 1002.42 1002.58 1002.74 1002.94 1003.14 1003.30 1003.42 1003.54 1003.66 1003.78 1003.90 1004.02 1004.14 1004.26 1004.42 1004.62 1004.78 1004.86 1005.02 1005.18 1005.38 1005.54 1005.62 1005.74 1005.90 1006.02 1006.14 1006.22 1006.26 1006.30 1006.30 1006.26 1006.26 1006.42 1006.74 1006.86 1007.02 1007.26 1007.50 1007.74 1007.98 1008.22 1008.46 1008.58 1008.74 1008.82 1008.94 1009.10 1009.30 1009.54 1009.78 1010.02 1010.22 1010.42 1010.58 1010.74 1010.86 1010.98 1011.10 1011.26
1001.02 1001.18 1001.34 1001.46 1001.58 1001.70 1001.78 1001.90 1002.02 1002.18 1002.38 1002.58 1002.74 1002.90 1003.06 1003.18 1003.30 1003.42 1003.54 1003.70 1003.82 1003.98 1004.14 1004.30 1004.46 1004.58 1004.74 1004.90 1005.10 1005.26 1005.38 1005.50 1005.66 1005.74 1005.86 1005.94 1006.06 1006.14 1006.14 1006.18 1006.10 1006.02 1006.22 1006.70 1006.74 1006.82 1006.98 1007.18 1007.46 1007.74 1007.98 1008.22 1008.42 1008.54 1008.62 1008.82 1008.98 1009.18 1009.46 1009.70 1009.90 1010.10 1010.30 1010.46 1010.66 1010.74 1010.86 1011.02 1011.14
1000.74 1000.90 1001.06 1001.18 1001.30 1001.42 1001.54 1001.66 1001.82 1001.98 1002.18 1002.38 1002.54 1002.66 1002.82 1002.90 1003.02 1003.18 1003.30 1003.46 1003.66 1003.82 1003.98 1004.14 1004.30 1004.46 1004.66 1004.86 1005.02 1005.18 1005.34 1005.46 1005.50 1005.58 1005.70 1005.82 1005.90 1005.98 1006.02 1006.02 1005.90 1005.74 1005.94 1006.58 1006.66 1006.70 1006.74 1006.90 1007.18 1007.46 1007.74 1008.02 1008.18 1008.30 1008.46 1008.74 1008.86 1009.10 1009.30 1009.58 1009.78 1010.02 1010.18 1010.38 1010.50 1010.62 1010.78 1010.94 1011.02
1000.46 1000.62 1000.78 1000.90 1001.02 1001.14 1001.30 1001.46 1001.58 1001.78 1001.98 1002.18 1002.30 1002.46 1002.54 1002.70 1002.86 1003.02 1003.14 1003.26 1003.42 1003.58 1003.66 1003.82 1004.02 1004.18 1004.46 1004.70 1004.94 1005.14 1005.26 1005.30 1005.38 1005.46 1005.58 1005.66 1005.74 1005.82 1005.86 1005.78 1005.66 1005.58 1005.78 1006.38 1006.54 1006.62 1006.70 1006.74 1006.94 1007.22 1007.54 1007.90 1008.02 1008.18 1008.30 1008.58 1008.78 1008.98 1009.14 1009.34 1009.58 1009.86 1010.02 1010.18 1010.26 1010.42 1010.58 1010.74 1010.86
1000.18 1000.34 1000.50 1000.62 1000.74 1000.90 1001.02 1001.22 1001.42 1001.58 1001.78 1001.98 1002.10 1002.18 1002.30 1002.46 1002.62 1002.78 1002.90 1003.02 1003.18 1003.34 1003.50 1003.66 1003.82 1004.06 1004.30 1004.58 1004.74 1004.94 1005.10 1005.22 1005.30 1005.38 1005.46 1005.54 1005.58 1005.70 1005.70 1005.58 1005.38 1005.66 1006.10 1006.22 1006.38 1006.54 1006.74 1006.82 1006.98 1007.22 1007.50 1007.82 1008.02 1008.18 1008.30 1008.58 1008.74 1008.86 1009.02 1009.22 1009.46 1009.70 1009.86 1010.02 1010.14 1010.18 1010.30 1010.42 1010.54
999.86 1000.02 1000.22 1000.34 1000.50 1000.66 1000.82 1001.02 1001.18 1001.38 1001.58 1001.74 1001.86 1001.98 1002.14 1002.26 1002.38 1002.50 1002.66 1002.78 1003.02 1003.18 1003.38 1003.58 1003.82 1004.10 1004.34 1004.50 1004.62 1004.78 1004.94 1005.06 1005.14 1005.22 1005.30 1005.42 1005.50 1005.54 1005.50 1005.38 1005.06 1005.74 1006.46 1006.46 1006.42 1006.50 1006.70 1006.90 1007.10 1007.34 1007.62 1007.90 1008.06 1008.26 1008.46 1008.62 1008.74 1008.86 1009.02 1009.30 1009.54 1009.74 1009.90 1010.18 1010.54 1010.66 1010.62 1010.58 1010.54
999.54 999.74 999.90 1000.10 1000.26 1000.42 1000.58 1000.74 1000.94 1001.14 1001.30 1001.42 1001.58 1001.74 1001.86 1002.02 1002.14 1002.26 1002.42 1002.58 1002.82 1003.02 1003.18 1003.46 1003.74 1004.02 1004.18 1004.38 1004.58 1004.70 1004.78 1004.86 1005.02 1005.10 1005.18 1005.18 1005.22 1005.26 1005.26 1005.22 1005.18 1005.94 1006.82 1006.98 1006.86 1006.74 1006.74 1006.90 1007.18 1007.46 1007.74 1007.98 1008.18 1008.34 1008.54 1008.74 1008.86 1009.02 1009.26 1009.50 1009.86 1010.10 1010.42 1010.82 1011.34 1011.54 1011.50 1011.38 1011.30
999.26 999.42 999.58 999.82 1000.02 1000.18 1000.30 1000.46 1000.66 1000.82 1000.94 1001.06 1001.22 1001.42 1001.58 1001.74 1001.90 1002.02 1002.18 1002.38 1002.58 1002.78 1002.98 1003.22 1003.46 1003.70 1003.90 1004.14 1004.34 1004.50 1004.62 1004.74 1004.86 1004.90 1004.98 1004.98 1004.98 1005.02 1005.10 1005.22 1005.90 1006.70 1007.26 1007.38 1007.30 1007.18 1007.10 1007.10 1007.22 1007.42 1007.62 1007.90 1008.14 1008.30 1008.54 1008.74 1008.94 1009.14 1009.42 1009.86 1010.46 1010.90 1011.26 1011.54 1011.74 1011.90 1012.02 1012.02 1011.94
998.98 999.18 999.34 999.54 999.74 999.90 1000.02 1000.22 1000.38 1000.50 1000.62 1000.82 1000.98 1001.14 1001.30 1001.46 1001.66 1001.74 1001.90 1002.02 1002.30 1002.50 1002.74 1002.94 1003.18 1003.34 1003.58 1003.82 1004.06 1004.22 1004.38 1004.50 1004.74 1005.02 1005.30 1005.26 1005.30 1005.42 1005.54 1005.78 1006.62 1007.22 1007.54 1007.66 1007.66 1007.62 1007.58 1007.58 1007.46 1007.42 1007.50 1007.74 1007.94 1008.18 1008.38 1008.58 1008.86 1009.22 1009.66 1010.18 1010.66 1011.06 1011.42 1011.74 1011.98 1012.18 1012.30 1012.30 1012.22
998.74 998.90 999.10 999.30 999.46 999.58 999.78 999.94 1000.06 1000.18 1000.38 1000.54 1000.70 1000.86 1001.02 1001.18 1001.34 1001.46 1001.58 1001.74 1001.98 1002.26 1002.50 1002.70 1002.86 1003.06 1003.30 1003.58 1003.78 1003.94 1004.18 1004.58 1005.14 1005.62 1005.98 1006.02 1006.18 1006.30 1006.46 1006.58 1007.02 1007.42 1007.70 1007.94 1008.02 1008.02 1007.98 1007.98 1007.90 1007.82 1007.70 1007.70 1007.90 1008.10 1008.30 1008.46 1008.86 1009.34 1009.86 1010.30 1010.74 1011.14 1011.58 1011.90 1012.14 1012.30 1012.46 1012.50 1012.50
998.54 998.74 998.90 999.06 999.22 999.38 999.54 999.70 999.82 999.94 1000.10 1000.30 1000.46 1000.58 1000.70 1000.82 1001.02 1001.18 1001.30 1001.54 1001.78 1002.02 1002.30 1002.50 1002.66 1002.86 1003.06 1003.38 1003.66 1003.98 1004.46 1005.02 1005.66 1006.02 1006.30 1006.54 1006.74 1006.98 1007.14 1007.26 1007.50 1007.74 1008.02 1008.26 1008.34 1008.30 1008.22 1008.18 1008.22 1008.22 1008.18 1007.98 1007.98 1008.06 1008.26 1008.58 1008.98 1009.46 1009.94 1010.38 1010.74 1011.18 1011.62 1012.02 1012.26 1012.46 1012.58 1012.70 1012.78
Thickness
5628 5626 5625 5627 5629 5631 5633 5634 5634 5634 5634 5634 5634 5635 5634 5635 5635 5634 5633 5632 5631 5630 5629 5629 5628 5627 5626 5625 5624 5623 5623 5622 5621 5620 5619 5619 5618 5618 5617 5616 5616 5615 5614 5613 5613 5612 5610 5611 5610 5610 5609 5609 5610 5610 5610 5610 5610 5610 5610 5609 5610 5609 5609 5608 5609 5608 5608 5607 5607
5629 5629 5628 5628 5629 5631 5632 5633 5633 5633 5633 5634 5635 5634 5635 5634 5635 5634 5633 5632 5631 5630 5629 5629 5628 5627 5626 5626 5624 5624 5622 5622 5621 5620 5620 5619 5618 5618 5617 5617 5616 5616 5614 5613 5612 5611 5611 5610 5610 5610 5610 5610 5609 5609 5610 5610 5610 5610 5610 5610 5610 5610 5609 5608 5608 5608 5607 5606 5606
5631 5631 5629 5630 5630 5631 5632 5633 5633 5633 5634 5634 5634 5634 5634 5635 5634 5634 5634 5633 5632 5630 5629 5629 5629 5628 5627 5626 5625 5624 5623 5622 5622 5620 5620 5619 5619 5619 5618 5617 5616 5615 5615 5614 5613 5612 5611 5610 5610 5610 5610 5610 5610 5610 5610 5610 5610 5609 5610 5610 5609 5609 5609 5608 5608 5607 5606 5605 5605
5632 5632 5632 5631 5632 5632 5632 5633 5633 5634 5634 5635 5634 5634 5634 5634 5634 5634 5634 5633 5632 5631 5630 5629 5629 5628 5628 5627 5626 5625 5624 5623 5622 5621 5620 5620 5619 5619 5618 5617 5616 5615 5615 5614 5613 5612 5612 5611 5610 5610 5610 5611 5611 5611 5611 5610 5610 5610 5609 5609 5609 5609 5609 5609 5608 5606 5606 5605 5604
5633 5634 5633 5633 5632 5632 5633 5633 5634 5634 5634 5635 5635 5635 5635 5635 5634 5634 5634 5634 5633 5632 5631 5631 5630 5630 5629 5628 5627 5626 5625 5623 5622 5622 5620 5620 5619 5619 5618 5618 5616 5616 5615 5614 5613 5612 5611 5611 5611 5610 5611 5611 5611 5611 5611 5611 5610 5610 5610 5609 5608 5609 5608 5608 5607 5606 5605 5604 5604
5634 5634 5634 5634 5633 5633 5632 5633 5634 5635 5634 5635 5635 5636 5636 5636 5635 5635 5635 5635 5634 5633 5632 5631 5631 5630 5630 5629 5628 5626 5625 5624 5623 5623 5622 5621 5620 5619 5618 5618 5618 5616 5616 5615 5614 5613 5612 5611 5611 5611 5611 5611 5612 5612 5611 5611 5610 5609 5609 5609 5608 5608 5608 5607 5607 5605 5605 5604 5603
5635 5635 5636 5635 5634 5634 5633 5633 5634 5635 5635 5635 5636 5636 5636 5637 5636 5636 5635 5635 5635 5634 5632 5631 5631 5631 5631 5631 5629 5628 5626 5625 5624 5623 5623 5623 5621 5620 5620 5619 5618 5618 5616 5616 5615 5614 5613 5612 5612 5612 5612 5612 5611 5612 5612 5611 5610 5610 5609 5609 5608 5607 5607 5607 5606 5605 5605 5604 5603
5636 5636 5636 5637 5636 5635 5635 5634 5635 5635 5635 5636 5637 5637 5637 5637 5636 5636 5635 5635 5634 5634 5633 5632 5632 5632 5631 5631 5631 5630 5628 5627 5625 5624 5623 5623 5622 5621 5621 5620 5619 5619 5618 5617 5616 5615 5614 5613 5612 5613 5613 5612 5612 5612 5612 5611 5610 5609 5610 5610 5609 5608 5607 5607 5606 5605 5604 5603 5602
5637 5636 5637 5637 5637 5637 5635 5635 5635 5635 5636 5637 5637 5637 5636 5636 5636 5636 5635 5635 5634 5634 5633 5633 5633 5632 5632 5632 5631 5630 5630 5629 5627 5625 5625 5624 5623 5623 5622 5621 5620 5620 5619 5618 5617 5616 5614 5614 5613 5613 5614 5613 5613 5612 5611 5611 5611 5610 5610 5610 5609 5608 5607 5606 5605 5604 5603 5602 5601
5639 5638 5637 5638 5638 5637 5637 5636 5636 5636 5636 5637 5637 5637 5636 5636 5636 5635 5635 5634 5634 5634 5633 5634 5633 5632 5632 5632 5632 5632 5631 5630 5629 5628 5626 5625 5624 5624 5623 5622 5622 5621 5620 5619 5618 5617 5616 5615 5615 5615 5614 5614 5614 5613 5612 5611 5610 5610 5610 5609 5608 5608 5607 5606 5605 5603 5602 5600 5599
5640 5639 5638 5638 5638 5638 5637 5637 5637 5636 5636 5637 5637 5637 5637 5636 5635 5634 5634 5634 5634 5633 5634 5634 5633 5633 5632 5632 5632 5632 5632 5631 5630 5629 5628 5627 5626 5625 5624 5623 5623 5622 5621 5621 5619 5618 5617 5616 5616 5616 5615 5615 5614 5613 5612 5611 5611 5610 5610 5609 5608 5607 5607 5605 5604 5602 5601 5599 5597
5640 5640 5639 5638 5638 5638 5637 5638 5638 5637 5637 5637 5638 5638 5637 5636 5635 5635 5634 5634 5634 5634 5634 5634 5634 5633 5633 5633 5633 5632 5632 5632 5631 5631 5630 5629 5627 5626 5625 5624 5624 5623 5622 5622 5620 5619 5618 5618 5617 5617 5616 5615 5613 5612 5612 5611 5610 5610 5609 5608 5607 5606 5606 5605 5603 5601 5599 5597 5595
5640 5639 5639 5639 5639 5638 5638 5639 5639 5639 5639 5639 5638 5638 5637 5637 5636 5635 5634 5634 5634 5634 5635 5634 5634 5634 5634 5633 5633 5632 5633 5632 5632 5631 5631 5630 5628 5627 5626 5625 5625 5624 5623 5622 5621 5621 5620 5619 5619 5618 5617 5615 5614 5613 5612 5611 5610 5610 5609 5608 5607 5606 5605 5604 5602 5600 5598 5595 5594
5641 5641 5641 5640 5640 5639 5639 5640 5640 5640 5640 5640 5639 5639 5638 5638 5637 5636 5636 5635 5635 5635 5635 5634 5635 5634 5634 5634 5634 5633 5633 5633 5632 5632 5632 5631 5630 5628 5627 5626 5625 5624 5623 5622 5621 5621 5620 5620 5620 5619 5618 5616 5615 5613 5612 5611 5610 5610 5609 5608 5607 5606 5604 5603 5600 5598 5596 5593 5592
5643 5642 5642 5642 5642 5641 5641 5641 5641 5641 5641 5641 5641 5640 5640 5639 5638 5637 5637 5637 5636 5636 5636 5636 5636 5635 5635 5635 5635 5634 5634 5633 5633 5632 5632 5632 5631 5629 5628 5627 5626 5625 5623 5623 5622 5621 5621 5621 5620 5620 5618 5617 5615 5614 5612 5611 5610 5609 5609 5608 5606 5604 5603 5601 5598 5596 5593 5592 5590
5645 5644 5644 5644 5644 5644 5644 5644 5644 5643 5644 5643 5642 5642 5641 5641 5640 5639 5639 5638 5638 5637 5637 5637 5637 5636 5636 5636 5635 5635 5635 5634 5633 5634 5633 5633 5632 5631 5629 5628 5627 5626 5624 5623 5622 5621 5621 5620 5620 5619 5618 5617 5615 5614 5612 5610 5609 5608 5607 5606 5605 5603 5601 5598 5596 5594 5591 5590 5589
5648 5647 5647 5646 5646 5646 5646 5646 5646 5646 5646 5645 5644 5643 5642 5642 5642 5641 5640 5640 5639 5639 5638 5638 5638 5637 5637 5636 5636 5635 5635 5635 5634 5634 5634 5634 5633 5632 5631 5629 5628 5627 5625 5624 5623 5622 5621 5620 5619 5618 5617 5616 5615 5613 5612 5610 5608 5607 5606 5604 5603 5601 5599 5597 5594 5592 5590 5589 5588
5651 5650 5649 5649 5648 5649 5649 5649 5649 5648 5648 5647 5646 5645 5644 5643 5643 5642 5642 5641 5640 5640 5640 5640 5639 5638 5638 5637 5637 5636 5636 5635 5636 5635 5635 5634 5634 5633 5632 5630 5629 5627 5625 5624 5623 5623 5621 5620 5619 5617 5616 5615 5613 5612 5610 5609 5608 5606 5604 5602 5600 5599 5597 5595 5593 5591 5590 5588 5587
5653 5653 5651 5651 5651 5651 5650 5650 5650 5650 5649 5649 5647 5647 5645 5644 5644 5643 5643 5642 5642 5641 5640 5640 5640 5639 5639 5639 5638 5637 5636 5636 5636 5636 5635 5635 5634 5633 5632 5631 5629 5628 5626 5625 5624 5623 5621 5620 5618 5617 5615 5614 5613 5611 5609 5608 5606 5605 5603 5601 5600 5597 5596 5594 5592 5591 5589 5588 5587
5656 5655 5654 5653 5653 5652 5651 5651 5651 5650 5650 5650 5649 5648 5647 5646 5645 5645 5644 5644 5643 5642 5641 5641 5641 5640 5640 5639 5639 5638 5638 5637 5637 5637 5636 5635 5634 5633 5633 5632 5630 5629 5627 5626 5624 5623 5622 5620 5619 5617 5615 5613 5612 5610 5608 5607 5605 5603 5602 5600 5598 5597 5595 5594 5592 5590 5589 5587 5585
5658 5658 5657 5655 5654 5653 5653 5652 5652 5652 5651 5651 5650 5650 5649 5648 5647 5646 5646 5645 5644 5643 5643 5642 5642 5642 5641 5640 5640 5640 5639 5638 5638 5637 5636 5636 5635 5634 5633 5632 5630 5629 5628 5626 5625 5623 5622 5621 5619 5617 5615 5613 5611 5609 5607 5606 5604 5602 5601 5599 5597 5595 5594 5593 5591 5589 5588 5586 5584
5661 5660 5658 5657 5656 5655 5654 5653 5653 5652 5652 5652 5652 5651 5651 5650 5649 5648 5647 5646 5645 5645 5643 5643 5642 5642 5642 5641 5641 5641 5640 5639 5639 5638 5637 5636 5635 5634 5633 5631 5631 5630 5629 5627 5626 5624 5622 5621 5620 5618 5615 5613 5611 5609 5606 5604 5603 5601 5599 5598 5596 5595 5593 5592 5590 5589 5587 5585 5584
5662 5661 5660 5659 5657 5656 5655 5655 5654 5654 5654 5654 5653 5653 5652 5652 5651 5650 5648 5647 5646 5646 5645 5644 5643 5643 5642 5641 5641 5640 5640 5639 5638 5638 5637 5636 5634 5634 5633 5631 5630 5629 5629 5628 5627 5625 5624 5621 5619 5617 5615 5612 5610 5608 5606 5603 5601 5599 5598 5597 5595 5594 5592 5591 5590 5588 5586 5585 5583
5664 5663 5662 5661 5660 5659 5658 5657 5656 5655 5656 5655 5654 5654 5653 5653 5652 5650 5649 5648 5647 5647 5646 5646 5644 5643 5641 5641 5641 5640 5640 5639 5639 5638 5637 5636 5635 5633 5632 5631 5630 5629 5629 5628 5627 5625 5624 5621 5619 5617 5615 5612 5610 5608 5605 5602 5600 5598 5597 5596 5595 5594 5592 5590 5589 5588 5585 5584 5582
5665 5664 5663 5663 5662 5661 5660 5659 5659 5658 5657 5657 5655 5655 5654 5654 5652 5651 5651 5650 5649 5648 5647 5646 5645 5643 5642 5640 5640 5640 5640 5639 5639 5638 5638 5636 5635 5634 5633 5631 5631 5629 5628 5627 5625 5624 5621 5620 5618 5617 5614 5612 5610 5607 5605 5602 5600 5598 5596 5595 5594 5593 5592 5590 5589 5587 5585 5583 5581
5667 5665 5665 5664 5663 5663 5662 5661 5661 5660 5659 5658 5657 5656 5655 5654 5653 5652 5651 5651 5650 5649 5647 5646 5645 5644 5642 5641 5640 5640 5639 5638 5638 5638 5637 5636 5635 5634 5633 5631 5631 5630 5628 5627 5624 5622 5620 5619 5617 5615 5614 5611 5609 5606 5603 5601 5599 5597 5596 5595 5593 5592 5591 5589 5588 5586 5584 5581 5580
5667 5667 5666 5665 5664 5664 5663 5662 5662 5661 5660 5659 5658 5657 5656 5655 5653 5652 5651 5651 5650 5649 5648 5647 5645 5644 5643 5641 5640 5640 5639 5638 5637 5637 5636 5635 5635 5634 5632 5632 5631 5630 5628 5626 5623 5621 5619 5617 5615 5613 5612 5611 5608 5604 5602 5600 5598 5597 5595 5594 5592 5591 5589 5588 5586 5584 5582 5580 5578
5669 5668 5667 5665 5665 5665 5664 5663 5662 5661 5661 5660 5659 5658 5656 5655 5654 5653 5652 5651 5650 5649 5648 5647 5646 5644 5643 5641 5641 5640 5639 5638 5636 5635 5634 5634 5634 5633 5633 5632 5631 5629 5628 5625 5622 5620 5618 5617 5614 5612 5610 5608 5606 5604 5601 5599 5596 5595 5594 5592 5591 5589 5588 5586 5584 5583 5581 5578 5576
5670 5669 5668 5666 5666 5665 5664 5663 5662 5662 5661 5660 5659 5658 5656 5655 5654 5653 5652 5651 5650 5649 5648 5647 5645 5644 5642 5642 5641 5641 5639 5638 5636 5634 5633 5632 5632 5632 5632 5631 5631 5629 5627 5624 5622 5620 5619 5616 5614 5612 5609 5607 5605 5602 5600 5598 5596 5595 5593 5591 5590 5588 5586 5585 5583 5581 5579 5578 5576
5671 5670 5669 5668 5667 5666 5665 5664 5663 5662 5661 5660 5658 5657 5656 5655 5654 5653 5652 5651 5650 5649 5648 5646 5645 5643 5642 5642 5641 5640 5638 5637 5636 5634 5633 5632 5631 5631 5630 5630 5630 5628 5626 5623 5622 5620 5619 5616 5614 5611 5609 5606 5604 5602 5599 5597 5596 5594 5592 5590 5588 5587 5585 5583 5581 5580 5578 5577 5575
5672 5671 5670 5669 5668 5667 5666 5665 5664 5662 5661 5659 5658 5657 5656 5655 5654 5653 5652 5651 5650 5649 5647 5645 5644 5643 5642 5641 5640 5638 5637 5636 5635 5633 5632 5631 5630 5629 5629 5628 5627 5627 5625 5622 5621 5620 5619 5616 5613 5611 5608 5606 5603 5601 5599 5597 5595 5592 5590 5589 5587 5585 5583 5581 5579 5578 5577 5575 5574
5673 5672 5671 5670 5669 5668 5667 5666 5664 5663 5661 5659 5658 5657 5656 5655 5654 5653 5651 5650 5649 5647 5646 5644 5643 5642 5641 5640 5638 5637 5636 5634 5633 5632 5631 5630 5629 5628 5627 5627 5626 5626 5624 5619 5619 5619 5618 5616 5614 5611 5608 5605 5603 5600 5598 5595 5593 5591 5588 5586 5584 5583 5581 5579 5577 5576 5574 5572 5571
5674 5672 5672 5671 5670 5669 5667 5666 5664 5662 5661 5660 5659 5658 5657 5656 5654 5653 5651 5649 5648 5647 5646 5645 5643 5642 5640 5639 5636 5635 5634 5633 5632 5632 5631 5629 5628 5627 5626 5626 5625 5626 5624 5618 5617 5616 5616 5616 5613 5611 5607 5605 5602 5599 5597 5593 5592 5590 5587 5584 5582 5580 5578 5576 5575 5572 5571 5569 5567
5674 5673 5672 5671 5670 5669 5668 5666 5664 5662 5661 5660 5659 5658 5657 5656 5654 5652 5651 5649 5648 5647 5646 5645 5643 5641 5639 5637 5635 5633 5632 5632 5630 5629 5629 5628 5626 5625 5624 5625 5625 5625 5623 5617 5615 5614 5614 5613 5612 5610 5606 5602 5600 5597 5594 5592 5590 5588 5586 5584 5581 5578 5575 5574 5572 5571 5568 5566 5566
5674 5674 5673 5672 5670 5669 5668 5666 5664 5662 5661 5660 5659 5658 5657 5655 5654 5653 5651 5649 5648 5646 5645 5644 5642 5640 5638 5636 5634 5633 5631 5630 5628 5628 5627 5626 5625 5624 5623 5623 5625 5622 5617 5615 5614 5613 5611 5610 5609 5606 5603 5599 5597 5594 5592 5590 5588 5586 5584 5581 5579 5576 5574 5571 5570 5569 5568 5568 5568
5675 5674 5673 5672 5670 5669 5667 5666 5664 5663 5661 5660 5659 5658 5656 5654 5653 5652 5650 5649 5647 5646 5645 5643 5640 5638 5636 5634 5633 5631 5630 5629 5627 5626 5625 5623 5622 5621 5621 5622 5625 5618 5611 5611 5612 5611 5609 5607 5604 5602 5599 5596 5593 5591 5589 5587 5585 5583 5581 5578 5575 5573 5570 5567 5564 5564 5565 5565 5565
5675 5675 5674 5672 5671 5669 5668 5666 5665 5663 5662 5661 5659 5658 5656 5654 5653 5651 5649 5648 5646 5645 5644 5641 5639 5636 5635 5633 5631 5630 5628 5627 5625 5624 5623 5623 5622 5622 5621 5620 5621 5614 5606 5605 5606 5607 5606 5603 5600 5596 5594 5592 5589 5588 5586 5583 5581 5579 5577 5573 5570 5567 5564 5560 5556 5555 5555 5554 5553
5676 5675 5674 5673 5671 5670 5668 5667 5665 5664 5663 5662 5659 5657 5656 5654 5652 5650 5649 5647 5645 5645 5644 5641 5639 5636 5634 5632 5630 5628 5626 5625 5623 5623 5622 5623 5623 5622 5621 5618 5612 5605 5600 5599 5600 5600 5599 5598 5596 5594 5592 5589 5587 5584 5582 5579 5577 5575 5572 5568 5563 5558 5555 5552 5549 5547 5546 5545 5544
5677 5675 5674 5673 5672 5670 5669 5667 5666 5665 5663 5661 5660 5658 5656 5654 5652 5651 5649 5647 5646 5644 5643 5641 5639 5637 5634 5631 5629 5626 5625 5623 5622 5619 5617 5617 5617 5616 5613 5610 5603 5598 5596 5594 5593 5593 5592 5592 5592 5592 5590 5588 5585 5582 5580 5577 5575 5572 5568 5563 5558 5554 5550 5547 5544 5542 5540 5539 5539
5677 5676 5674 5674 5672 5671 5669 5668 5666 5665 5663 5661 5660 5658 5656 5654 5652 5651 5649 5647 5645 5644 5642 5640 5638 5636 5633 5630 5628 5627 5624 5619 5616 5612 5609 5608 5606 5603 5602 5600 5596 5594 5591 5588 5587 5586 5586 5585 5585 5585 5585 5585 5582 5580 5577 5575 5571 5568 5563 5558 5554 5550 5545 5541 5539 5536 5534 5533 5533
5676 5675 5674 5673 5672 5671 5669 5668 5667 5665 5663 5661 5660 5658 5656 5654 5653 5651 5649 5647 5645 5643 5640 5639 5637 5634 5632 5629 5626 5624 5620 5613 5608 5605 5603 5601 5598 5595 5594 5592 5590 5587 5585 5583 5581 5580 5581 5580 5579 5578 5578 5579 5578 5576 5574 5572 5567 5563 5558 5554 5550 5546 5541 5537 5534 5532 5529 5528 5526